Lexington Weather

Lexington, Massachusetts, USA

29°F
4/1/2020 3:33am 
  • Lexington Conditions: Clear
  • Temperature: 29.3°F / -1.5°CColder 0.5°F than last hour.
  • Dew Point: 27.3°FDecreased 0.6°Fsince last hour.
  • Relative Humidity: 92
  • Wind: Wind from ESE ESE Calm, 10-min avg: 1 mph, gust: 2 mph
  • Barometer: 29.89 in Steady
  • Visibility: 10 miles
  • Snow Today: 0.0 in
  •   

Regional Weather Roundup
for Boston / Norton, MA

        
000
ASUS41 KBOX 312304
RWRBOX

REGIONAL WEATHER ROUNDUP
NATIONAL WEATHER SERVICE BOSTON/NORTON MA
700 PM EDT TUE MAR 31 2020

NOTE:  "FAIR" INDICATES FEW OR NO CLOUDS BELOW 12,000 FEET WITH NO 
SIGNIFICANT WEATHER AND/OR OBSTRUCTIONS TO VISIBILITY.

MAZALL-010000-
EASTERN MASSACHUSETTS
  
CITY           SKY/WX    TMP DP  RH WIND       PRES   REMARKS
BOSTON         FAIR      35  27  72 E12       30.03S WCI  27          
BEVERLY        FAIR      36  27  69 E8        30.01F WCI  30          
LAWRENCE       FAIR      37  28  70 E7        30.03R WCI  32          
BEDFORD        FAIR      38  27  64 E9        30.00S WCI  31          
BLUE HILL        N/A     33  26  75 E10       29.97S WCI  25          
NORWOOD        FAIR      38  26  62 E8        30.01S                  
MARSHFIELD     FAIR      37  28  70 NE10      30.02S WCI  30          
PLYMOUTH       FAIR      35  27  72 NE12      30.00F WCI  27          
TAUNTON        FAIR      37  26  64 NE9       29.99S WCI  30          
NEW BEDFORD    FAIR      36  27  69 NE12      29.99S WCI  28          
$$

MAZALL-010000-
CAPE COD AND THE ISLANDS
  
CITY           SKY/WX    TMP DP  RH WIND       PRES   REMARKS
FALMOUTH       CLEAR     36  27  69 NE12      29.99F WCI  27          
HYANNIS        FAIR      37  26  64 NE10      29.97F WCI  30          
CHATHAM        FAIR      36  25  64 NE12G18   30.00F WCI  28          
PROVINCETOWN   FAIR      35  27  72 NE10      30.02F WCI  27          
NANTUCKET      FAIR      36  27  69 N14       29.99S WCI  27          
MARTHAS VNYRD  FAIR      37  27  67 NE14      29.99S WCI  28          
$$
 
MAZALL-010000-
CENTRAL AND WESTERN MASSACHUSETTS
  
CITY           SKY/WX    TMP DP  RH WIND       PRES   REMARKS
WORCESTER      FAIR      43  24  47 NE5       29.94F                  
FITCHBURG      FAIR      43  27  53 SE10      29.97S                  
ORANGE         FAIR      45  30  55 NW8       29.97F                  
SPRINGFIELD    PTCLDY    44  29  56 NE6       29.95F                  
WESTFIELD      FAIR      44  28  53 N3        29.96S                  
NORTH ADAMS    CLOUDY    42  35  76 E6        29.96F                  
PITTSFIELD     CLOUDY    41  34  76 CALM      29.93S                  
$$
 
RIZALL-010000-
RHODE ISLAND
  
CITY           SKY/WX    TMP DP  RH WIND       PRES   REMARKS
PROVIDENCE     FAIR      43  29  57 E12       29.98R                  
NEWPORT        FAIR      41  27  57 E6        29.97S                  
BLOCK ISLAND   FAIR      38  28  67 E12G17    29.98F WCI  30          
SMITHFIELD     FAIR      42  28  57 E7        29.97S                  
WESTERLY       FAIR      42  30  62 SE9       29.98F                  
$$
 
CTZALL-010000-
CONNECTICUT
  
CITY           SKY/WX    TMP DP  RH WIND       PRES   REMARKS
BRADLEY INTL   FAIR      45  30  55 NE9       29.96S                  
HARTFORD       MOCLDY    47  29  49 NE10      29.96S                  
BRIDGEPORT     CLOUDY    45  33  63 S3        29.96S                  
DANBURY        CLOUDY    45  31  58 NE5       29.95S                  
GROTON         FAIR      39  32  76 SE10      29.98S                  
NEW HAVEN      CLOUDY    44  35  70 SE5       29.96S                  
CHESTER        CLOUDY    41  32  70 SE5       29.96S                  
MERIDEN        CLOUDY    47  29  49 N9        29.95F                  
WILLIMANTIC    FAIR      45  27  49 NE6       29.96S                  
OXFORD         CLOUDY    44  31  60 N8        29.95S                  
$$

MEZ002-015-021-024-NHZ003-005-008-011-012-014-VTZ005-008-010000-
NORTHERN NEW ENGLAND
  
CITY           SKY/WX    TMP DP  RH WIND       PRES   REMARKS
PORTLAND ME    FAIR      42  28  57 SE7       30.01F                  
BANGOR ME      CLOUDY    42  23  46 N8        30.02R                  
CONCORD NH     MOCLDY    43  27  53 E9        29.97S                  
MANCHESTER NH  FAIR      42  28  57 E8        29.97R                  
NASHUA NH      FAIR      43  29  57 E12       29.99R                  
PORTSMOUTH NH  PTCLDY    35  26  70 SE7       30.01S WCI  29          
JAFFREY NH     FAIR      43  32  65 CALM      29.95F                  
KEENE NH       FAIR      44  29  55 N5        29.97F                  
BURLINGTON VT  FAIR      45  22  40 N15       30.00S                  
MT. WASHINGTON CLEAR     16  10  79 NW6         N/A  WCI   7          
$$

NYZ052-076-010000-
EASTERN NEW YORK
  
CITY           SKY/WX    TMP DP  RH WIND       PRES   REMARKS
ALBANY         MOCLDY    47  32  56 NE6       29.97F                  
NEW YORK CITY  CLOUDY    45  33  63 S9        29.95F                  
$$
 
ANZALL-010000-
MARINE OBSERVATIONS
  
STATION/POSITION TIME  TEMP    WIND        PRES    VSBY  WAVE
                       AIR SEA DIR/SP/G                  HT/PER
                 (UTC) (F)     (DEG/KT/KT) (MB)    (MI)  (FT/S)
BOSTON BUOY      2250   36 43   60/ 10/ 12 1016.0F         7/ 9
BUZZARDS BAY     2200           60/ 19/ 21 1016.3F
NANTUCKET SOUND  2240                        N/A           3/ 3
MASS BAY-STELLWA 2204   36 42   80/ 10/ 14 1014.7F  1 7/8  9/11
ISLE OF SHOALS   2200   36      90/ 10/ 11 1016.4F
S OF BLOCK IS    2230      43                N/A           5/11
$$

......................KEY.........................
  SKY/WX - SKY CONDITION/PRESENT WEATHER
  TMP    - TEMPERATURE IN FAHRENHEIT
  DWPT   - DEWPOINT IN FAHRENHEIT
  RH     - RELATIVE HUMIDITY IN PERCENT
  WIND   - DIRECTION AND SPEED IN MPH
  PRES   - MEAN SEA LEVEL PRESSURE IN INCHES OF HG
  WCI    - WIND CHILL INDEX
  VSB    - VISIBILITY IN MILES
  HX     - HEAT INDEX
  TC     - TEMPERATURE IN CELSIUS
  VRB    - VARIABLE WIND DIRECTION
  N/A    - NOT AVAILABLE
  
      

Other recent Regional Weather Roundups

Wed Apr 1, 3:04am

Wed Apr 1, 2:04am

Wed Apr 1, 1:04am

Wed Apr 1, 12:04am

Tue Mar 31, 11:04pm

Tue Mar 31, 10:04pm

Tue Mar 31, 9:04pm

Tue Mar 31, 8:04pm

Tue Mar 31, 6:04pm

Tue Mar 31, 4:04pm

Tue Mar 31, 3:04pm

Tue Mar 31, 2:04pm

Tue Mar 31, 1:04pm

Tue Mar 31, 12:05pm

Tue Mar 31, 11:04am

Tue Mar 31, 10:05am

Tue Mar 31, 9:04am

Tue Mar 31, 8:04am

Tue Mar 31, 7:05am

Tue Mar 31, 6:04am

Tue Mar 31, 5:04am

Tue Mar 31, 4:04am

Tue Mar 31, 3:04am

Tue Mar 31, 2:04am

Tue Mar 31, 1:04am

Tue Mar 31, 12:04am

Mon Mar 30, 11:04pm

Mon Mar 30, 10:04pm

Mon Mar 30, 9:05pm

Mon Mar 30, 8:04pm

Mon Mar 30, 7:04pm

Mon Mar 30, 6:04pm

Mon Mar 30, 5:05pm

Mon Mar 30, 4:04pm

Mon Mar 30, 3:04pm

Mon Mar 30, 2:04pm

Mon Mar 30, 1:04pm

Mon Mar 30, 12:04pm

Mon Mar 30, 11:04am

Mon Mar 30, 10:04am

Mon Mar 30, 9:04am

Mon Mar 30, 8:04am

Mon Mar 30, 7:04am

Mon Mar 30, 6:04am

Mon Mar 30, 5:04am

Mon Mar 30, 4:04am

Mon Mar 30, 3:05am

Mon Mar 30, 2:04am

Mon Mar 30, 1:04am

Mon Mar 30, 12:04am

Sun Mar 29, 11:04pm

Sun Mar 29, 10:05pm

Sun Mar 29, 9:04pm

Sun Mar 29, 8:04pm

Sun Mar 29, 7:04pm

Sun Mar 29, 6:04pm

Sun Mar 29, 5:05pm

Sun Mar 29, 4:04pm

Sun Mar 29, 3:04pm

Sun Mar 29, 2:04pm

Sun Mar 29, 1:05pm

Sun Mar 29, 12:04pm

Sun Mar 29, 11:04am

Sun Mar 29, 10:04am

Sun Mar 29, 9:04am

Sun Mar 29, 8:04am

Sun Mar 29, 7:04am

Sun Mar 29, 6:04am

Sun Mar 29, 5:04am

Sun Mar 29, 4:04am

Meta data:

ID: 0a0bcc99-a501-4c0c-8f42-5d4bcf3a2d80
Link: https://api.weather.gov/products/0a0bcc99-a501-4c0c-8f42-5d4bcf3a2d80